Location: Izdebno
(52.6670°N, 16.2170°E)
Time: 04:08:29
(UTC+02:00)

A-11 Canister half - Pass Details

Date: 12 February 2023
Orbit: 1526 x 1682 km, 47.3° (Epoch: 24 March)

Event Time Altitude Azimuth Distance (km) Brightness Sun altitude
Rises 06:45:01 0° 267° (W) 4,679 - -5.6°
Exits shadow 06:46:11 - 266° (W) 4,300 10.7 -5.5°
Reaches altitude 10° 06:48:04 10° 265° (W) 3,695 10.4 -5.2°
Maximum altitude 06:57:11 63° 187° (S) 1,688 9.4 -3.9°
Drops below altitude 10° 07:06:26 10° 110° (ESE) 3,749 13.2 -2.5°
Sets 07:09:34 0° 107° (ESE) 4,751 15.0 -2.1°
